Big Bear Station Historical Data
 
Daily Summary for October 20, 2018 Units:  English    Metric   Both
Next Day »
Daily Weekly Monthly Yearly Custom
  Current: High: Low: Average:
Temperature: 34.7 °F 37.8 °F 34.7 °F 35.9 °F
Dew Point: 27.9 °F 28 °F 26.5 °F 27.3 °F
Humidity: 76% 76% 65% 71%
Wind Speed: 0mph 2.2mph 0mph 0.1mph
Wind Gust: -999mph -999mph - -
WindCalm - - South
Pressure: 23.57 in 23.59 in 23.56 in -
Precipitation: 0 in      
Historical Graphs
 
 
Tabular Data for October 20, 2018
Time Temperature Dew Point Pressure Wind Wind Speed Wind Gust Humidity Rainfall Rate (Hourly)
00:11 37.8 °F 27.8 °F 23.59 in Calm   -999 mph 67% 0.00 in
00:26 37.6 °F 26.9 °F 23.59 in Calm   -999 mph 65% 0.00 in
00:41 37.2 °F 26.5 °F 23.59 in South 2.2 mph -999 mph 65% 0.00 in
00:57 37 °F 26.7 °F 23.59 in Calm   -999 mph 66% 0.00 in
01:12 36.9 °F 27 °F 23.58 in Calm   -999 mph 67% 0.00 in
01:28 36.7 °F 27.1 °F 23.58 in Calm   -999 mph 68% 0.00 in
01:43 36.7 °F 27.1 °F 23.58 in Calm   -999 mph 68% 0.00 in
01:58 36.7 °F 27.1 °F 23.58 in Calm   -999 mph 68% 0.00 in
02:14 36.5 °F 27.3 °F 23.58 in Calm   -999 mph 69% 0.00 in
02:29 36 °F 27.2 °F 23.58 in Calm   -999 mph 70% 0.00 in
02:44 35.8 °F 27.3 °F 23.58 in Calm   -999 mph 71% 0.00 in
03:00 36 °F 27.2 °F 23.57 in Calm   -999 mph 70% 0.00 in
03:15 36 °F 27.2 °F 23.57 in Calm   -999 mph 70% 0.00 in
03:31 35.1 °F 27 °F 23.57 in Calm   -999 mph 72% 0.00 in
03:46 34.9 °F 27.5 °F 23.57 in Calm   -999 mph 74% 0.00 in
04:02 35.1 °F 27.6 °F 23.56 in Calm   -999 mph 74% 0.00 in
04:17 34.9 °F 27.8 °F 23.56 in Calm   -999 mph 75% 0.00 in
04:33 35.2 °F 27.4 °F 23.56 in Calm   -999 mph 73% 0.00 in
04:48 35.2 °F 27.1 °F 23.57 in Calm   -999 mph 72% 0.00 in
05:03 34.9 °F 26.8 °F 23.57 in Calm   -999 mph 72% 0.00 in
05:18 35.2 °F 27.4 °F 23.57 in Calm   -999 mph 73% 0.00 in
05:33 35.1 °F 28 °F 23.57 in Calm   -999 mph 75% 0.00 in
05:49 34.9 °F 27.8 °F 23.57 in Calm   -999 mph 75% 0.00 in
06:04 34.7 °F 27.9 °F 23.57 in Calm   -999 mph 76% 0.00 in
Big Bear CA Weather